Погода в Фуншале

Португалия     32°39′04″N   16°54′35″W
темп.,
°C
ветер,
м/с
пор.,
м/с
влажн.,
%
обл.,
%
осадки,
мм/ч
давл.,
гПа
погр.,
м
23 января, сб
сб2300:00+11сз12750 0.0 102733
03:00+11зсз229146 0.0 102643
06:00+10сз118147 0.0 102535
09:00+12сз1285100 0.0 102637
12:00+16зсз1171100 0.0 1026475
15:00+17зсз0168100 0.0 1024542
18:00+13зюз0188100 0.0 102456
21:00+12з1193100 0.0 102525
24 января, вс
вс2400:00+11зсз0190100 0.0 102423
03:00+11зюз1191100 0.0 102323
06:00+11зсз0189100 0.0 102226
09:00+11зюз1189100 0.0 102244
12:00+17з116897 0.0 1023600
15:00+17зюз236797 0.0 1021588
18:00+13зюз118776 0.0 1021133
21:00+11з12910 0.0 1022117
25 января, пн
пн2500:00+11зсз12860 0.0 102231
03:00+11сз119069 0.0 102232
06:00+11зсз12930 0.0 102241
09:00+12зсз12890 0.0 102343
12:00+18сз116917 0.0 1025549
15:00+17сз127833 0.0 1024414
18:00+14ссз119249 0.0 1024139
21:00+12в019590 0.0 102647
26 января, вт
вт2600:00+11с118459 0.0 102628
03:00+11св01840 0.0 102524
06:00+11св11840 0.0 102629
09:00+12в11830 0.0 102743
12:00+19юв12590 0.0 1027388
15:00+18вюв12710 0.0 1026421
18:00+15юв11860 0.0 102577
21:00+12в119466 0.0 1027103
27 января, ср
ср2700:00+11ююв119471 0.0 102757
03:00+12вюв11930 0.0 102541
06:00+10зсз11833 0.0 102529
09:00+11ссз118581 0.0 102657
12:00+19вюв116738 0.0 1025464
15:00+20юв12590 0.0 1024577
18:00+14всв119173 0.0 102561
21:00+11всв119196 0.0 102654